Weather History for Ironwood, MI

Change the Weather History Date:

Monday, January 27, 2014

  Actual Average Record
Temperature  
Mean Temperature -10 °F -  
Max Temperature -4 °F 22 °F 48 °F (2006)
Min Temperature -16 °F 7 °F -18 °F (2009)
Degree Days  
Heating Degree Days 75    
Moisture  
Dew Point -18 °F    
Average Humidity 68    
Maximum Humidity 84    
Minimum Humidity 54    
Precipitation  
Precipitation 0.00 in - - ()
Sea Level Pressure  
Sea Level Pressure 30.02 in    
Wind  
Wind Speed 16 mph (West)    
Max Wind Speed 22 mph    
Max Gust Speed 29 mph    
Visibility 5 miles    
Events      
Averages and records for this station are not official NWS values.
T = Trace of Precipitation, MM = Missing Value Source: NWS Daily Summary

Daily Weather History Graph

Daily Weather History Graph

Search for Another Location

Airport:

Trip Planner

Search our weather history database for the weather conditions in past years. The results will help you decide how hot, cold, wet, or windy it might be!

Date:

Astronomy

Jan. 27, 2014 Rise Set
Actual Time 7:29 AM CST 4:57 PM CST
Civil Twilight 6:57 AM CST 5:29 PM CST
Nautical Twilight 6:20 AM CST 6:06 PM CST
Astronomical Twilight 5:45 AM CST 6:42 PM CST
Moon 4:13 AM CST (1/27) 1:40 PM CST (1/27)
Length of Visible Light 10h 32m
Length of Day
9h 27m
Waning Crescent, 14% of the Moon is Illuminated
Jan 27
Waning Crescent
Jan 30
New
Feb 6
First Quarter
Feb 14
Full
Feb 22
Last Quarter

Hourly Weather History & Observations

Time (CST) Temp. Windchill Dew Point Humidity Pressure Visibility Wind Dir Wind Speed Gust Speed Precip Events Conditions
12:15 AM -4.0 °F -24.5 °F -9.4 °F 78% 29.75 in 1.5 mi NW 15.0 mph 27.6 mph N/A   Overcast
12:35 AM -4.0 °F -24.5 °F -11.2 °F 71% 29.76 in 1.5 mi NW 15.0 mph 25.3 mph N/A   Overcast
12:55 AM -5.8 °F -26.0 °F -11.2 °F 77% 29.78 in 1.8 mi NW 13.8 mph 27.6 mph N/A   Overcast
1:15 AM -5.8 °F -28.2 °F -11.2 °F 77% 29.78 in 1.2 mi NW 17.3 mph 25.3 mph N/A   Overcast
1:35 AM -5.8 °F -27.5 °F -11.2 °F 77% 29.79 in 1.0 mi NNW 16.1 mph 24.2 mph N/A   Overcast
1:55 AM -5.8 °F -28.8 °F -11.2 °F 77% 29.80 in 1.0 mi NW 18.4 mph 23.0 mph N/A   Overcast
2:15 AM -5.8 °F -26.0 °F -13.0 °F 71% 29.82 in 1.2 mi NW 13.8 mph 25.3 mph N/A   Overcast
2:35 AM -5.8 °F -27.5 °F -11.2 °F 77% 29.84 in 0.5 mi NW 16.1 mph 25.3 mph N/A   Overcast
2:55 AM -5.8 °F -27.5 °F -14.8 °F 65% 29.85 in 1.0 mi NW 16.1 mph 23.0 mph N/A   Overcast
3:15 AM -7.6 °F -31.1 °F -11.2 °F 84% 29.85 in 1.0 mi NW 18.4 mph 23.0 mph N/A   Overcast
3:35 AM -7.6 °F -31.1 °F -14.8 °F 71% 29.86 in 1.2 mi NW 18.4 mph 24.2 mph N/A   Overcast
3:55 AM -7.6 °F -30.5 °F -11.2 °F 84% 29.87 in 1.0 mi WNW 17.3 mph 26.5 mph N/A   Overcast
4:15 AM -7.6 °F -29.8 °F -16.6 °F 65% 29.88 in 2.0 mi NW 16.1 mph - N/A   Overcast
4:35 AM -7.6 °F -28.3 °F -16.6 °F 65% 29.89 in 1.5 mi WNW 13.8 mph 25.3 mph N/A   Overcast
4:55 AM -9.4 °F -34.7 °F -14.8 °F 77% 29.90 in 1.0 mi WNW 20.7 mph 28.8 mph N/A   Overcast
5:15 AM -9.4 °F -32.1 °F -16.6 °F 71% 29.92 in 1.5 mi WNW 16.1 mph 25.3 mph N/A   Overcast
5:35 AM -9.4 °F -29.8 °F -16.6 °F 71% 29.93 in 2.5 mi WNW 12.7 mph 23.0 mph N/A   Overcast
5:55 AM -9.4 °F -31.4 °F -16.6 °F 71% 29.93 in 0.8 mi WNW 15.0 mph 23.0 mph N/A   Overcast
6:15 AM -11.2 °F -36.4 °F -20.2 °F 64% 29.94 in 1.2 mi West 19.6 mph 25.3 mph N/A   Overcast
6:35 AM -11.2 °F -35.2 °F -18.4 °F 70% 29.95 in 1.0 mi WNW 17.3 mph 24.2 mph N/A   Overcast
6:55 AM -11.2 °F -34.4 °F -18.4 °F 70% 29.96 in 1.0 mi West 16.1 mph - N/A   Overcast
7:15 AM -11.2 °F -35.8 °F -20.2 °F 64% 29.97 in 1.0 mi West 18.4 mph 24.2 mph N/A   Overcast
7:35 AM -13.0 °F -40.0 °F -18.4 °F 77% 29.98 in 0.5 mi West 21.9 mph - N/A   Overcast
7:55 AM -13.0 °F -36.8 °F -22.0 °F 64% 29.99 in 0.5 mi WNW 16.1 mph 23.0 mph N/A   Overcast
8:15 AM -14.8 °F -39.8 °F -20.2 °F 77% 30.01 in 0.5 mi West 17.3 mph 24.2 mph N/A   Overcast
8:35 AM -14.8 °F -40.5 °F -25.6 °F 58% 30.02 in 0.5 mi WSW 18.4 mph - N/A   Overcast
8:55 AM -16.6 °F -39.8 °F -23.8 °F 70% 30.03 in 0.8 mi West 13.8 mph - N/A   Overcast
9:15 AM -16.6 °F -41.4 °F -20.2 °F 84% 30.03 in 1.5 mi WSW 16.1 mph - N/A   Overcast
9:35 AM -14.8 °F -39.1 °F -23.8 °F 64% 30.04 in 0.5 mi WSW 16.1 mph 21.9 mph N/A   Overcast
9:55 AM -14.8 °F -39.1 °F -23.8 °F 64% 30.05 in 1.2 mi West 16.1 mph 24.2 mph N/A   Overcast
10:15 AM -14.8 °F -41.2 °F -22.0 °F 70% 30.05 in 1.2 mi WSW 19.6 mph - N/A   Overcast
10:35 AM -14.8 °F -41.2 °F -20.2 °F 77% 30.06 in 1.8 mi West 19.6 mph 25.3 mph N/A   Overcast
10:55 AM -14.8 °F -38.3 °F -20.2 °F 77% 30.07 in 1.8 mi West 15.0 mph 23.0 mph N/A   Overcast
11:15 AM -14.8 °F -39.8 °F -20.2 °F 77% 30.07 in 1.2 mi West 17.3 mph 26.5 mph N/A   Mostly Cloudy
11:35 AM -13.0 °F -37.5 °F -20.2 °F 70% 30.07 in 3.0 mi West 17.3 mph 23.0 mph N/A   Mostly Cloudy
11:55 AM -11.2 °F -35.8 °F -20.2 °F 64% 30.07 in 2.5 mi West 18.4 mph 24.2 mph N/A   Scattered Clouds
12:15 PM -11.2 °F -36.4 °F -16.6 °F 77% 30.08 in 6.0 mi West 19.6 mph 23.0 mph N/A   Partly Cloudy
12:35 PM -11.2 °F -35.8 °F -20.2 °F 64% 30.08 in 5.0 mi West 18.4 mph 24.2 mph N/A   Partly Cloudy
12:55 PM -11.2 °F -35.8 °F -18.4 °F 70% 30.08 in 5.0 mi West 18.4 mph 24.2 mph N/A   Scattered Clouds
1:15 PM -9.4 °F -32.8 °F -16.6 °F 71% 30.08 in 9.0 mi West 17.3 mph - N/A   Partly Cloudy
1:35 PM -9.4 °F -32.1 °F -18.4 °F 65% 30.09 in 2.0 mi West 16.1 mph 19.6 mph N/A   Clear
1:55 PM -9.4 °F -32.1 °F -18.4 °F 65% 30.09 in 9.0 mi West 16.1 mph - N/A   Clear
2:15 PM -9.4 °F -32.8 °F -16.6 °F 71% 30.09 in 9.0 mi West 17.3 mph - N/A   Clear
2:35 PM -7.6 °F -29.1 °F -16.6 °F 65% 30.09 in 8.0 mi West 15.0 mph - N/A   Clear
2:55 PM -7.6 °F -31.7 °F -16.6 °F 65% 30.10 in 9.0 mi West 19.6 mph - N/A   Clear
3:15 PM -7.6 °F -30.5 °F -18.4 °F 59% 30.10 in 10.0 mi WSW 17.3 mph - N/A   Clear
3:35 PM -7.6 °F -29.8 °F -18.4 °F 59% 30.10 in 10.0 mi WSW 16.1 mph - N/A   Clear
3:55 PM -7.6 °F -29.8 °F -16.6 °F 65% 30.10 in 10.0 mi West 16.1 mph - N/A   Clear
4:15 PM -7.6 °F -28.3 °F -18.4 °F 59% 30.10 in 10.0 mi WSW 13.8 mph - N/A   Clear
4:35 PM -7.6 °F -27.5 °F -16.6 °F 65% 30.11 in 10.0 mi WSW 12.7 mph - N/A   Clear
4:55 PM -7.6 °F -26.6 °F -18.4 °F 59% 30.11 in 10.0 mi WSW 11.5 mph 17.3 mph N/A   Clear
5:15 PM -7.6 °F -25.7 °F -18.4 °F 59% 30.11 in 10.0 mi WSW 10.4 mph - N/A   Clear
5:35 PM -9.4 °F -29.8 °F -20.2 °F 59% 30.11 in 10.0 mi West 12.7 mph - N/A   Clear
5:55 PM -9.4 °F -30.6 °F -18.4 °F 65% 30.11 in 10.0 mi West 13.8 mph - N/A   Clear
6:15 PM -9.4 °F -30.6 °F -18.4 °F 65% 30.12 in 10.0 mi West 13.8 mph - N/A   Clear
6:35 PM -9.4 °F -31.4 °F -20.2 °F 59% 30.12 in 10.0 mi WSW 15.0 mph - N/A   Clear
6:55 PM -9.4 °F -32.1 °F -16.6 °F 71% 30.12 in 10.0 mi West 16.1 mph - N/A   Clear
7:15 PM -9.4 °F -32.8 °F -20.2 °F 59% 30.12 in 10.0 mi West 17.3 mph - N/A   Clear
7:35 PM -9.4 °F -34.1 °F -18.4 °F 65% 30.12 in 8.0 mi West 19.6 mph - N/A   Clear
7:55 PM -9.4 °F -32.8 °F -18.4 °F 65% 30.12 in 10.0 mi West 17.3 mph 23.0 mph N/A   Scattered Clouds
8:15 PM -9.4 °F -31.4 °F -18.4 °F 65% 30.12 in 10.0 mi West 15.0 mph - N/A   Partly Cloudy
8:35 PM -9.4 °F -32.8 °F -18.4 °F 65% 30.11 in 10.0 mi West 17.3 mph 23.0 mph N/A   Clear
8:55 PM -9.4 °F -30.6 °F -18.4 °F 65% 30.12 in 10.0 mi West 13.8 mph - N/A   Clear
9:15 PM -9.4 °F -28.9 °F -20.2 °F 59% 30.12 in 10.0 mi WSW 11.5 mph - N/A   Clear
9:35 PM -11.2 °F -32.9 °F -20.2 °F 64% 30.12 in 10.0 mi West 13.8 mph - N/A   Partly Cloudy
9:55 PM -11.2 °F -33.7 °F -20.2 °F 64% 30.11 in 10.0 mi WSW 15.0 mph - N/A   Mostly Cloudy
10:15 PM -11.2 °F -35.2 °F -20.2 °F 64% 30.11 in 10.0 mi West 17.3 mph - N/A   Partly Cloudy
10:35 PM -11.2 °F -33.7 °F -23.8 °F 54% 30.11 in 10.0 mi West 15.0 mph 21.9 mph N/A   Clear
10:55 PM -13.0 °F -36.0 °F -20.2 °F 70% 30.12 in 10.0 mi West 15.0 mph - N/A   Clear
11:15 PM -13.0 °F -33.4 °F -20.2 °F 70% 30.12 in 10.0 mi WSW 11.5 mph - N/A   Partly Cloudy
11:35 PM -13.0 °F -33.4 °F -22.0 °F 64% 30.12 in 10.0 mi WSW 11.5 mph - N/A   Scattered Clouds
11:55 PM -13.0 °F -35.2 °F -20.2 °F 70% 30.12 in 10.0 mi WSW 13.8 mph 18.4 mph N/A   Scattered Clouds